When you browse on this site, cookies collect data to enhance your experience and personalize the content and advertising you see.
Visit our Privacy Policy to learn more. By continuing to use the site, you agree to this use of cookies and data.
  • In Switzerland
  • List of Countries
  • For 7 days
  • Water Temperature
  • Satellite Maps
  • Weather Map
  • Weather Widgets
  • user-avatar
    Login

    Hourly Weather Canillo

    Today, 24 March, Sunday

    Time Temperature Precipitation Wind Pressure Humidity
    00:00 +4°C° 0 mm 1 mps 620 mmHg 69%
    01:00 +3°C° 0 mm 1 mps 620 mmHg 69%
    02:00 +3°C° 0 mm 1 mps 620 mmHg 69%
    03:00 +3°C° 0 mm 1 mps 619 mmHg 69%
    04:00 +3°C° 0 mm 1 mps 619 mmHg 68%
    05:00 +2°C° 0 mm 1 mps 619 mmHg 66%
    06:00 +2°C° 0 mm 1 mps 620 mmHg 65%
    07:00 +5°C° 0 mm 1 mps 621 mmHg 58%
    08:00 +8°C° 0 mm 1 mps 622 mmHg 51%
    09:00 +10°C° 0 mm 1 mps 623 mmHg 44%
    10:00 +11°C° 0 mm 1 mps 623 mmHg 41%
    11:00 +12°C° 0 mm 1 mps 624 mmHg 39%
    12:00 +13°C° 0 mm 1 mps 624 mmHg 36%
    13:00 +13°C° 0.1 mm 1 mps 623 mmHg 39%
    14:00 +12°C° 0.1 mm 1 mps 623 mmHg 43%
    15:00 +12°C° 0.1 mm 2 mps 622 mmHg 46%
    16:00 +9°C° 0.4 mm 2 mps 622 mmHg 57%
    17:00 +7°C° 0.4 mm 2 mps 621 mmHg 68%
    18:00 +6°C° 0.4 mm 1 mps 620 mmHg 78%
    19:00 +6°C° 0.1 mm 1 mps 620 mmHg 82%
    20:00 +5°C° 0.1 mm 1 mps 620 mmHg 86%
    21:00 +4°C° 0.1 mm 1 mps 620 mmHg 90%
    22:00 +3°C° 0 mm 1 mps 619 mmHg 90%
    23:00 +3°C° 0 mm 1 mps 619 mmHg 89%

    Tomorrow, 25 March, Monday

    Time Temperature Precipitation Wind Pressure Humidity
    00:00 +2°C° 0 mm 1 mps 619 mmHg 88%
    01:00 +2°C° 0 mm 1 mps 619 mmHg 85%
    02:00 +2°C° 0 mm 1 mps 618 mmHg 82%
    03:00 +1°C° 0 mm 1 mps 618 mmHg 79%
    04:00 +1°C° 0 mm 1 mps 618 mmHg 78%
    05:00 +1°C° 0 mm 1 mps 618 mmHg 77%
    06:00 0°C° 0 mm 1 mps 618 mmHg 76%
    07:00 +2°C° 0 mm 2 mps 619 mmHg 70%
    08:00 +4°C° 0 mm 2 mps 619 mmHg 64%
    09:00 +6°C° 0 mm 2 mps 620 mmHg 58%
    10:00 +7°C° 0 mm 2 mps 621 mmHg 55%
    11:00 +8°C° 0 mm 2 mps 621 mmHg 52%
    12:00 +9°C° 0 mm 2 mps 621 mmHg 50%
    13:00 +8°C° 0 mm 3 mps 620 mmHg 51%
    14:00 +8°C° 0 mm 3 mps 620 mmHg 52%
    15:00 +8°C° 0 mm 3 mps 619 mmHg 53%
    16:00 +4°C° 0 mm 3 mps 618 mmHg 61%
    17:00 +2°C° 0 mm 3 mps 618 mmHg 69%
    18:00 0°C° 0 mm 3 mps 617 mmHg 76%
    19:00 -1°C° 0 mm 3 mps 617 mmHg 78%
    20:00 -2°C° 0 mm 3 mps 617 mmHg 80%
    21:00 -4°C° 0 mm 3 mps 617 mmHg 82%
    22:00 -4°C° 0 mm 3 mps 618 mmHg 84%
    23:00 -2°C° 0 mm 3 mps 618 mmHg 86%

    Day after tomorrow, 26 March, Tuesday

    Time Temperature Precipitation Wind Pressure Humidity
    00:00 -3°C° 0 mm 4 mps 618 mmHg 88%
    01:00 -4°C° 0 mm 4 mps 618 mmHg 86%
    02:00 -4°C° 0 mm 4 mps 618 mmHg 84%
    03:00 -5°C° 0 mm 3 mps 618 mmHg 83%
    04:00 -5°C° 0 mm 3 mps 617 mmHg 78%
    05:00 -6°C° 0 mm 3 mps 617 mmHg 73%
    06:00 -7°C° 0 mm 3 mps 617 mmHg 68%
    07:00 -4°C° 0 mm 3 mps 618 mmHg 54%
    08:00 -2°C° 0 mm 4 mps 619 mmHg 39%
    09:00 0°C° 0 mm 4 mps 620 mmHg 24%
    10:00 +1°C° 0 mm 4 mps 621 mmHg 23%
    11:00 +3°C° 0 mm 4 mps 621 mmHg 21%
    12:00 +5°C° 0 mm 4 mps 621 mmHg 20%
    13:00 +4°C° 0 mm 4 mps 621 mmHg 23%
    14:00 +4°C° 0 mm 4 mps 620 mmHg 26%
    15:00 +4°C° 0 mm 4 mps 620 mmHg 30%
    16:00 +2°C° 0 mm 3 mps 619 mmHg 37%
    17:00 0°C° 0 mm 3 mps 619 mmHg 45%
    18:00 -2°C° 0 mm 2 mps 618 mmHg 53%
    19:00 -2°C° 0 mm 2 mps 618 mmHg 55%
    20:00 -3°C° 0 mm 2 mps 619 mmHg 58%
    21:00 -4°C° 0 mm 2 mps 619 mmHg 60%
    22:00 -4°C° 0 mm 2 mps 619 mmHg 60%
    23:00 -4°C° 0 mm 2 mps 619 mmHg 61%

    27 March, Wednesday

    Time Temperature Precipitation Wind Pressure Humidity
    00:00 -2°C° 0 mm 1 mps 619 mmHg 61%
    01:00 -2°C° 0 mm 1 mps 619 mmHg 62%
    02:00 -2°C° 0 mm 1 mps 619 mmHg 62%
    03:00 -2°C° 0 mm 1 mps 619 mmHg 62%
    04:00 -2°C° 0 mm 1 mps 619 mmHg 59%
    05:00 -2°C° 0 mm 1 mps 619 mmHg 55%
    06:00 -2°C° 0 mm 1 mps 619 mmHg 51%
    07:00 +1°C° 0 mm 1 mps 620 mmHg 41%
    08:00 +3°C° 0 mm 1 mps 621 mmHg 32%
    09:00 +6°C° 0 mm 1 mps 623 mmHg 22%
    10:00 +7°C° 0 mm 1 mps 623 mmHg 23%
    11:00 +8°C° 0 mm 2 mps 623 mmHg 23%
    12:00 +9°C° 0 mm 2 mps 623 mmHg 24%
    13:00 +8°C° 0 mm 2 mps 623 mmHg 27%
    14:00 +8°C° 0 mm 2 mps 622 mmHg 31%
    15:00 +8°C° 0 mm 2 mps 622 mmHg 35%
    16:00 +5°C° 0 mm 2 mps 621 mmHg 44%
    17:00 +3°C° 0 mm 2 mps 620 mmHg 54%
    18:00 +1°C° 0 mm 2 mps 620 mmHg 64%
    19:00 -1°C° 0 mm 2 mps 620 mmHg 67%
    20:00 0°C° 0 mm 1 mps 620 mmHg 71%
    21:00 -1°C° 0 mm 1 mps 620 mmHg 74%
    22:00 -1°C° 0 mm 1 mps 620 mmHg 73%
    23:00 -1°C° 0 mm 1 mps 620 mmHg 72%

    28 March, Thursday

    Time Temperature Precipitation Wind Pressure Humidity
    00:00 -1°C° 0 mm 1 mps 620 mmHg 71%
    01:00 -1°C° 0 mm 1 mps 620 mmHg 75%
    02:00 -1°C° 0 mm 1 mps 620 mmHg 78%
    03:00 -1°C° 0 mm 1 mps 620 mmHg 82%
    04:00 -1°C° 0 mm 1 mps 620 mmHg 82%
    05:00 -1°C° 0 mm 1 mps 620 mmHg 83%
    06:00 -1°C° 0 mm 1 mps 620 mmHg 83%
    07:00 +2°C° 0 mm 1 mps 621 mmHg 70%
    08:00 +4°C° 0 mm 1 mps 623 mmHg 56%
    09:00 +7°C° 0 mm 1 mps 624 mmHg 43%
    10:00 +8°C° 0 mm 1 mps 624 mmHg 41%
    11:00 +9°C° 0 mm 1 mps 624 mmHg 39%
    12:00 +10°C° 0 mm 1 mps 625 mmHg 37%
    13:00 +10°C° 0 mm 1 mps 624 mmHg 41%
    14:00 +9°C° 0 mm 1 mps 623 mmHg 45%
    15:00 +8°C° 0 mm 1 mps 623 mmHg 49%
    16:00 +7°C° 0 mm 1 mps 622 mmHg 58%
    17:00 +5°C° 0 mm 1 mps 622 mmHg 66%
    18:00 +3°C° 0 mm 0 mps 621 mmHg 75%
    19:00 +3°C° 0 mm 1 mps 621 mmHg 79%
    20:00 +3°C° 0 mm 1 mps 622 mmHg 83%
    21:00 +2°C° 0 mm 1 mps 622 mmHg 87%
    22:00 +2°C° 0 mm 1 mps 622 mmHg 88%
    23:00 +2°C° 0 mm 1 mps 621 mmHg 89%

    29 March, Friday

    Time Temperature Precipitation Wind Pressure Humidity
    00:00 +1°C° 0 mm 1 mps 621 mmHg 90%
    01:00 +1°C° 0 mm 1 mps 621 mmHg 90%
    02:00 +1°C° 0 mm 1 mps 621 mmHg 90%
    03:00 +1°C° 0 mm 1 mps 621 mmHg 90%
    04:00 +1°C° 0 mm 1 mps 621 mmHg 90%
    05:00 0°C° 0 mm 1 mps 621 mmHg 90%
    06:00 0°C° 0 mm 1 mps 621 mmHg 90%
    07:00 +2°C° 0.1 mm 1 mps 622 mmHg 81%
    08:00 +4°C° 0.1 mm 1 mps 622 mmHg 72%
    09:00 +6°C° 0.1 mm 1 mps 623 mmHg 62%
    10:00 +5°C° 0.2 mm 1 mps 623 mmHg 64%
    11:00 +5°C° 0.2 mm 1 mps 622 mmHg 65%
    12:00 +5°C° 0.2 mm 1 mps 622 mmHg 66%
    13:00 +5°C° 0.3 mm 1 mps 622 mmHg 67%
    14:00 +5°C° 0.3 mm 1 mps 621 mmHg 69%
    15:00 +5°C° 0.3 mm 1 mps 621 mmHg 70%
    16:00 +4°C° 0.4 mm 1 mps 621 mmHg 75%
    17:00 +4°C° 0.4 mm 1 mps 620 mmHg 79%
    18:00 +3°C° 0.4 mm 1 mps 620 mmHg 83%
    19:00 +3°C° 0.2 mm 1 mps 620 mmHg 85%
    20:00 +2°C° 0.2 mm 1 mps 621 mmHg 87%
    21:00 +2°C° 0.2 mm 1 mps 621 mmHg 88%
    22:00 +2°C° 0.1 mm 1 mps 621 mmHg 89%
    23:00 +1°C° 0.1 mm 1 mps 620 mmHg 90%
    Show more